When you browse on this site, cookies collect data to enhance your experience and personalize the content and advertising you see.
Visit our Privacy Policy to learn more. By continuing to use the site, you agree to this use of cookies and data.
  • en France
  • Liste des pays
  • À 7 jours
  • Température de l'eau
  • Carte satellitaire
  • Carte météo
  • Widgets météo
  • user-avatar
    Se connecter

    Météo par heure à Cobija

    Ce jour, 23 Mars, Samedi

    Heure Température Précipitation Vent Pression Humidité
    00:00 +25°C° 0.1 mm 1 m/s 739 mmHg 99%
    01:00 +25°C° 0.1 mm 1 m/s 739 mmHg 99%
    02:00 +22°C° 0.7 mm 0 m/s 739 mmHg 99%
    03:00 +22°C° 0.7 mm 0 m/s 738 mmHg 99%
    04:00 +22°C° 0.7 mm 0 m/s 738 mmHg 99%
    05:00 +24°C° 1.3 mm 1 m/s 739 mmHg 99%
    06:00 +25°C° 1.3 mm 1 m/s 739 mmHg 99%
    07:00 +25°C° 1.3 mm 1 m/s 740 mmHg 99%
    08:00 +26°C° 1.7 mm 1 m/s 740 mmHg 98%
    09:00 +27°C° 1.7 mm 1 m/s 741 mmHg 96%
    10:00 +28°C° 1.7 mm 2 m/s 741 mmHg 95%
    11:00 +29°C° 1 mm 1 m/s 740 mmHg 90%
    12:00 +30°C° 1 mm 1 m/s 739 mmHg 84%
    13:00 +31°C° 1 mm 1 m/s 738 mmHg 79%
    14:00 +31°C° 1.3 mm 1 m/s 738 mmHg 82%
    15:00 +31°C° 1.3 mm 1 m/s 737 mmHg 84%
    16:00 +28°C° 1.3 mm 0 m/s 736 mmHg 87%
    17:00 +27°C° 0.6 mm 0 m/s 736 mmHg 90%
    18:00 +26°C° 0.6 mm 0 m/s 737 mmHg 93%
    19:00 +24°C° 0.6 mm 0 m/s 737 mmHg 97%
    20:00 +24°C° 0.9 mm 0 m/s 738 mmHg 97%
    21:00 +24°C° 0.9 mm 0 m/s 738 mmHg 98%
    22:00 +23°C° 0.9 mm 0 m/s 739 mmHg 98%
    23:00 +23°C° 0.2 mm 0 m/s 738 mmHg 98%

    Demain, 24 Mars, Dimanche

    Heure Température Précipitation Vent Pression Humidité
    00:00 +23°C° 0.2 mm 0 m/s 738 mmHg 98%
    01:00 +23°C° 0.2 mm 0 m/s 738 mmHg 99%
    02:00 +23°C° 1 mm 0 m/s 738 mmHg 99%
    03:00 +23°C° 1 mm 0 m/s 737 mmHg 99%
    04:00 +23°C° 1 mm 0 m/s 737 mmHg 99%
    05:00 +23°C° 0.1 mm 0 m/s 738 mmHg 98%
    06:00 +23°C° 0.1 mm 0 m/s 738 mmHg 98%
    07:00 +24°C° 0.1 mm 0 m/s 739 mmHg 98%
    08:00 +25°C° 0.6 mm 0 m/s 739 mmHg 95%
    09:00 +26°C° 0.6 mm 0 m/s 739 mmHg 93%
    10:00 +27°C° 0.6 mm 0 m/s 739 mmHg 90%
    11:00 +29°C° 0.5 mm 0 m/s 739 mmHg 77%
    12:00 +33°C° 0.5 mm 1 m/s 738 mmHg 64%
    13:00 +35°C° 0.5 mm 1 m/s 737 mmHg 51%
    14:00 +33°C° 1.2 mm 1 m/s 736 mmHg 65%
    15:00 +31°C° 1.2 mm 1 m/s 735 mmHg 79%
    16:00 +30°C° 1.2 mm 1 m/s 735 mmHg 92%
    17:00 +28°C° 0.2 mm 1 m/s 735 mmHg 94%
    18:00 +25°C° 0.2 mm 0 m/s 736 mmHg 95%
    19:00 +24°C° 0.2 mm 0 m/s 737 mmHg 96%
    20:00 +24°C° 0.5 mm 0 m/s 737 mmHg 96%
    21:00 +24°C° 0.5 mm 0 m/s 738 mmHg 97%
    22:00 +24°C° 0.5 mm 0 m/s 738 mmHg 97%
    23:00 +23°C° 0.3 mm 0 m/s 738 mmHg 97%

    Après-demain, 25 Mars, Lundi

    Heure Température Précipitation Vent Pression Humidité
    00:00 +23°C° 0.3 mm 0 m/s 737 mmHg 98%
    01:00 +23°C° 0.3 mm 0 m/s 737 mmHg 98%
    02:00 +23°C° 0.2 mm 0 m/s 737 mmHg 98%
    03:00 +23°C° 0.2 mm 0 m/s 736 mmHg 99%
    04:00 +23°C° 0.2 mm 0 m/s 736 mmHg 99%
    05:00 +23°C° 1.8 mm 0 m/s 737 mmHg 99%
    06:00 +25°C° 1.8 mm 1 m/s 738 mmHg 99%
    07:00 +25°C° 1.8 mm 1 m/s 738 mmHg 98%
    08:00 +26°C° 0.8 mm 1 m/s 739 mmHg 97%
    09:00 +27°C° 0.8 mm 1 m/s 739 mmHg 96%
    10:00 +28°C° 0.8 mm 1 m/s 739 mmHg 94%
    11:00 +29°C° 0.9 mm 1 m/s 738 mmHg 92%
    12:00 +29°C° 0.9 mm 1 m/s 738 mmHg 91%
    13:00 +29°C° 0.9 mm 1 m/s 737 mmHg 89%
    14:00 +29°C° 0.5 mm 1 m/s 736 mmHg 89%
    15:00 +29°C° 0.5 mm 1 m/s 736 mmHg 88%
    16:00 +29°C° 0.5 mm 1 m/s 735 mmHg 88%
    17:00 +26°C° 0.5 mm 0 m/s 736 mmHg 91%
    18:00 +25°C° 0.5 mm 0 m/s 736 mmHg 94%
    19:00 +24°C° 0.5 mm 0 m/s 736 mmHg 96%
    20:00 +24°C° 1 mm 0 m/s 737 mmHg 97%
    21:00 +24°C° 1 mm 0 m/s 738 mmHg 98%
    22:00 +23°C° 1 mm 0 m/s 738 mmHg 98%
    23:00 +23°C° 0.1 mm 0 m/s 738 mmHg 98%

    26 Mars, Mardi

    Heure Température Précipitation Vent Pression Humidité
    00:00 +23°C° 0.1 mm 0 m/s 737 mmHg 99%
    01:00 +23°C° 0.1 mm 0 m/s 737 mmHg 99%
    02:00 +23°C° 0.1 mm 0 m/s 737 mmHg 99%
    03:00 +23°C° 0.1 mm 0 m/s 736 mmHg 99%
    04:00 +22°C° 0.1 mm 0 m/s 736 mmHg 99%
    05:00 +23°C° 0 mm 0 m/s 737 mmHg 99%
    06:00 +23°C° 0 mm 0 m/s 738 mmHg 98%
    07:00 +23°C° 0 mm 0 m/s 738 mmHg 98%
    08:00 +25°C° 0.3 mm 0 m/s 739 mmHg 92%
    09:00 +28°C° 0.3 mm 1 m/s 739 mmHg 86%
    10:00 +29°C° 0.3 mm 1 m/s 739 mmHg 81%
    11:00 +30°C° 0.5 mm 1 m/s 738 mmHg 77%
    12:00 +31°C° 0.5 mm 1 m/s 737 mmHg 74%
    13:00 +32°C° 0.5 mm 1 m/s 736 mmHg 71%
    14:00 +31°C° 0.7 mm 1 m/s 736 mmHg 73%
    15:00 +31°C° 0.7 mm 1 m/s 735 mmHg 74%
    16:00 +29°C° 0.7 mm 0 m/s 735 mmHg 76%
    17:00 +27°C° 0 mm 0 m/s 735 mmHg 80%
    18:00 +26°C° 0 mm 0 m/s 736 mmHg 85%
    19:00 +25°C° 0 mm 0 m/s 737 mmHg 90%
    20:00 +24°C° 0.2 mm 0 m/s 737 mmHg 92%
    21:00 +24°C° 0.2 mm 0 m/s 737 mmHg 93%
    22:00 +25°C° 0.2 mm 1 m/s 738 mmHg 95%
    23:00 +25°C° 0.7 mm 1 m/s 738 mmHg 96%

    27 Mars, Mercredi

    Heure Température Précipitation Vent Pression Humidité
    00:00 +25°C° 0.7 mm 1 m/s 738 mmHg 97%
    01:00 +25°C° 0.7 mm 1 m/s 737 mmHg 98%
    02:00 +25°C° 0.1 mm 1 m/s 737 mmHg 98%
    03:00 +24°C° 0.1 mm 1 m/s 737 mmHg 99%
    04:00 +24°C° 0.1 mm 1 m/s 737 mmHg 99%
    05:00 +24°C° 0.4 mm 1 m/s 738 mmHg 99%
    06:00 +25°C° 0.4 mm 2 m/s 739 mmHg 99%
    07:00 +25°C° 0.4 mm 2 m/s 740 mmHg 98%
    08:00 +25°C° 0.5 mm 2 m/s 740 mmHg 98%
    09:00 +25°C° 0.5 mm 2 m/s 740 mmHg 98%
    10:00 +25°C° 0.5 mm 2 m/s 740 mmHg 98%
    11:00 +25°C° 0.4 mm 2 m/s 740 mmHg 98%
    12:00 +24°C° 0.4 mm 2 m/s 739 mmHg 98%
    13:00 +24°C° 0.4 mm 2 m/s 739 mmHg 98%
    14:00 +24°C° 0.1 mm 2 m/s 738 mmHg 96%
    15:00 +24°C° 0.1 mm 2 m/s 738 mmHg 95%
    16:00 +25°C° 0.1 mm 2 m/s 738 mmHg 93%
    17:00 +24°C° 0 mm 2 m/s 738 mmHg 94%
    18:00 +24°C° 0 mm 1 m/s 739 mmHg 94%
    19:00 +24°C° 0 mm 1 m/s 739 mmHg 95%
    20:00 +24°C° 0 mm 1 m/s 739 mmHg 95%
    21:00 +24°C° 0 mm 1 m/s 740 mmHg 94%
    22:00 +24°C° 0 mm 1 m/s 740 mmHg 94%
    23:00 +23°C° 0 mm 1 m/s 740 mmHg 94%

    28 Mars, Jeudi

    Heure Température Précipitation Vent Pression Humidité
    00:00 +23°C° 0 mm 1 m/s 739 mmHg 95%
    01:00 +23°C° 0 mm 1 m/s 739 mmHg 96%
    02:00 +23°C° 0 mm 1 m/s 739 mmHg 95%
    03:00 +23°C° 0 mm 1 m/s 739 mmHg 95%
    04:00 +23°C° 0 mm 1 m/s 739 mmHg 94%
    05:00 +24°C° 0 mm 1 m/s 740 mmHg 91%
    06:00 +24°C° 0 mm 2 m/s 740 mmHg 88%
    07:00 +24°C° 0 mm 2 m/s 741 mmHg 85%
    08:00 +26°C° 0 mm 2 m/s 741 mmHg 75%
    09:00 +28°C° 0 mm 2 m/s 741 mmHg 66%
    10:00 +30°C° 0 mm 3 m/s 741 mmHg 56%
    11:00 +31°C° 0 mm 2 m/s 740 mmHg 54%
    12:00 +32°C° 0 mm 2 m/s 739 mmHg 51%
    13:00 +34°C° 0 mm 2 m/s 738 mmHg 49%
    14:00 +32°C° 0 mm 2 m/s 738 mmHg 53%
    15:00 +32°C° 0 mm 2 m/s 738 mmHg 56%
    16:00 +31°C° 0 mm 2 m/s 737 mmHg 60%
    17:00 +29°C° 0 mm 2 m/s 738 mmHg 65%
    18:00 +28°C° 0 mm 1 m/s 738 mmHg 71%
    19:00 +26°C° 0 mm 1 m/s 738 mmHg 77%
    20:00 +25°C° 0 mm 1 m/s 739 mmHg 79%
    21:00 +24°C° 0 mm 1 m/s 739 mmHg 81%
    22:00 +24°C° 0 mm 1 m/s 740 mmHg 83%
    23:00 +23°C° 0 mm 1 m/s 739 mmHg 84%
    Voir plus